Location: Little Maitland River
(43.8022°N, 81.1549°W)
Time: 22:13:27
(UTC+00:00)

Cosmos 2151 - Pass Details

Date: 09 December 2025
Orbit: 559 x 576 km, 82.5° (Epoch: 21 January)

Event Time Altitude Azimuth Distance (km) Brightness Sun altitude
Rises 11:44:13 0° 180° (S) 2,732 6.7 -11.0°
Reaches altitude 10° 11:46:23 10° 177° (S) 1,843 5.8 -10.6°
Maximum altitude 11:50:24 66° 96° (E) 617 3.3 -9.9°
Drops below altitude 10° 11:54:28 10° 14° (NNE) 1,867 5.4 -9.3°
Sets 11:56:41 0° 12° (NNE) 2,772 6.3 -8.9°
